[[{"header":{"parameterUnit":"m.s-1","parameterCategory":1,"la1":30.2991,"la2":30.254,"lo1":-89.0895,"lo2":-89.0444,"dx":0.0017,"dy":0.0017,"nx":28,"ny":28,"refTime":"2022-11-18T15:00:00:Z","depth":0,"parameterNumber":2,"parameterNumberName":"U-component_of_WINDS"},"data":[0,0,0,0,0,0,0,0,0,0,0,0,0,0,0,0,0,0,0,0,0,0,0,0,0,0,0,0,0,0,0,0,0,0,0,0,0,0,0,0,0,0,0,0,0,0,0,0,0,0,0,0,0,0,0,0,0,0,-3.9664,-3.9665,0,-3.9723,-3.9723,-3.9724,-3.9612,-3.9608,-3.9605,-3.9601,-3.9661,-3.9666,-3.9671,0,0,0,0,0,0,0,0,0,0,0,0,0,-3.9455,-3.946,-3.9664,-3.9665,-3.9666,-3.9722,-3.9723,-3.9724,-3.9613,-3.9608,-3.9604,-3.96,-3.9659,-3.9665,-3.9671,0,0,0,0,0,0,0,0,0,0,0,0,0,-3.9533,-3.9461,-3.9664,-3.9617,-3.9613,-3.9722,-3.9723,-3.9724,-3.9614,-3.9608,-3.9603,-3.9597,-3.9657,-3.9664,-3.9672,-3.9829,0,0,-3.9695,-3.9698,0,0,0,0,0,0,0,0,-3.9529,-3.9541,-3.9623,-3.9621,-3.9617,-3.9654,-3.9671,-3.9759,-3.9615,-3.9614,-3.9601,-3.9595,-3.9663,-3.967,-3.9693,-3.9832,-3.9835,-3.9696,-3.97,-3.9703,-3.9705,0,0,0,0,0,0,0,-3.9524,-3.9538,-3.9687,-3.9625,-3.9621,-3.9592,-3.9597,-3.9687,-3.9669,-3.9613,-3.9605,-3.9614,-3.966,-3.9686,-3.9693,-3.9835,-3.9695,-3.9702,-3.9707,-3.971,-4.0105,-4.0111,0,0,0,0,0,0,-3.9524,-3.9534,-3.9685,-3.9689,-3.9558,-3.9601,-3.9606,-3.9648,-3.9667,-3.9665,-3.9618,-3.9608,-3.9676,-3.9685,-3.9695,-3.988,-3.9703,-3.971,-3.9715,-4.0099,-4.0107,-4.0113,0,0,0,0,0,0,-3.952,-3.9539,-3.9683,-3.9609,-3.9626,-3.961,-3.9658,-3.9652,-3.9677,-3.9671,-3.9667,-3.9648,-3.9672,-3.9684,-3.9796,-3.9881,-3.9714,-3.9721,-4.0092,-4.0102,-4.011,-4.0253,0,0,0,0,0,0,-3.9515,-3.9538,-3.9598,-3.9612,-3.963,-3.9785,-3.9663,-3.9657,-3.9691,-3.9678,-3.9698,-3.9696,-3.9668,-3.9786,-3.9804,-3.9888,-3.9726,-4.0085,-4.0096,-4.0107,-4.0241,-4.0266,-4.0287,0,0,0,0,0,-3.9508,-3.9636,-3.9602,-3.9621,-3.9705,-3.979,-3.98,-3.9766,-3.9698,-3.9758,-3.9754,-3.9696,-3.9868,-3.9798,-3.9818,-3.9906,-4.0079,-4.0093,-4.0106,-4.023,-4.0261,-4.0287,0,0,0,0,0,0,-3.9634,-3.9637,-3.9599,-3.9736,-3.9764,-3.9771,-3.9846,-3.9799,-3.9846,-3.9832,-3.9787,-3.9792,-3.9914,-3.992,-3.9842,-4.0058,-3.9962,-3.998,-4.005,-4.0079,-4.0102,-4.0098,-3.9733,0,0,0,0,0,-3.9677,-3.9746,-3.9745,-3.9866,-3.9882,-3.9862,-3.9897,-3.9868,-3.9894,-3.9905,-3.9909,-3.9937,-3.9997,-4.0038,-4.0093,-4.024,-4.0243,-4.031,-4.0333,-4.0352,-4.0369,-4.0447,-4.0477,-4.0157,-4.0157,-4.0157,0,0,-3.9769,-3.9779,-3.9825,-3.9892,-3.991,-3.9982,-3.9872,-3.9953,-4.0006,-3.9918,-4.0024,-4.0028,-4.0055,-4.0186,-4.0243,-4.0195,-4.0457,-4.037,-4.0385,-4.0391,-4.0464,-4.0494,-4.0521,-4.0167,-4.0165,-4.0163,0,0,-3.9972,-3.9987,-4.0089,-4.0109,-4.0136,-4.0122,-4.0146,-4.0161,-4.016,-4.0265,-4.02,-4.0262,-4.0367,-4.0389,-4.0414,-4.0624,-4.0572,-4.0643,-4.0765,-4.0842,-4.0867,-4.0889,-4.0964,-4.0992,-4.0659,-4.066,-4.066,0,-4.0082,-4.0188,-4.0147,-4.0233,-4.0264,-4.0186,-4.0289,-4.031,-4.0355,-4.0378,-4.0323,-4.0452,-4.0466,-4.06,-4.0651,-4.0674,-4.07,-4.0642,-4.0866,-4.0888,-4.0908,-4.0979,-4.1008,-4.0668,-4.0667,-4.0666,-4.0665,0,-4.0322,-4.0396,-4.0475,-4.0521,-4.056,-4.0654,-4.0627,-4.0672,-4.0638,-4.0629,-4.0737,-4.075,-4.0806,-4.0835,-4.0804,-4.0965,-4.0934,-4.0874,-4.0777,-4.0948,-4.1014,-4.1041,-4.068,-4.0677,-4.0675,-4.0673,0,0,-4.0609,-4.0629,-4.0659,-4.0678,-4.0702,-4.0759,-4.0848,-4.0903,-4.0942,-4.0975,-4.1049,-4.1138,-4.1082,-4.1111,-4.1081,-4.1148,-4.1313,-4.1078,-4.1078,-4.1122,-4.1491,-4.1538,-4.157,-4.1278,-4.1283,-4.1287,-4.1489,0,-4.0811,-4.0966,-4.0931,-4.1083,-4.1151,-4.1078,-4.1155,-4.1179,-4.1172,-4.1228,-4.122,-4.1285,-4.1205,-4.1222,-4.1285,-4.128,-4.1387,-4.1264,-4.1346,-4.135,-4.1343,-4.1604,-4.1654,-4.1845,-4.1515,-4.1519,-4.1522,0,-4.1068,-4.111,-4.127,-4.1282,-4.1309,-4.138,-4.1427,-4.1482,-4.1506,-4.1496,-4.1527,-4.1484,-4.1571,-4.1472,-4.1593,-4.151,-4.1541,-4.1543,-4.155,-4.1557,-4.1448,-4.162,-4.1904,-4.1934,-4.1562,-4.1559,-4.1556,0,-4.1262,-4.1359,-4.1466,-4.1485,-4.1502,-4.1553,-4.1563,-4.1581,-4.1616,-4.1656,-4.1678,-4.1728,-4.1756,-4.1796,-4.1767,-4.1697,-4.1892,-4.179,-4.1886,-4.1888,-4.1932,-4.193,-4.2227,-4.1951,-4.195,-4.195,-4.1949,0,-4.1492,-4.1593,-4.1554,-4.1621,-4.173,-4.1688,-4.1798,-4.1799,-4.1816,-4.1881,-4.1819,-4.1881,-4.1838,-4.1896,-4.1873,-4.1977,-4.1989,-4.1984,-4.1977,-4.199,-4.1991,-4.2011,-4.1998,-4.1957,-4.1955,-4.1954,-4.1953,0,-4.1729,-4.1706,-4.1819,-4.1825,-4.1829,-4.191,-4.1915,-4.1976,-4.1964,-4.2047,-4.2064,-4.2045,-4.211,-4.2085,-4.2154,-4.2138,-4.227,-4.2245,-4.2263,-4.2257,-4.2355,-4.2346,-4.2676,-4.2717,-4.2413,-4.2416,-4.2419,0,-4.1878,-4.1954,-4.1968,-4.2007,-4.202,-4.2084,-4.2119,-4.208,-4.2118,-4.2151,-4.2208,-4.2268,-4.2314,-4.2421,-4.2413,-4.2465,-4.2442,-4.2554,-4.2449,-4.246,-4.2444,-4.2441,-4.2448,-4.2575,-4.2579,-4.2582,-4.2584,0,-4.2145,-4.213,-4.2183,-4.2232,-4.2276,-4.2313,-4.2344,-4.2379,-4.2341,-4.2388,-4.2453,-4.2489,-4.2559,-4.2619,-4.2665,-4.2673,-4.2623,-4.2616,-4.2641,-4.2657,-4.2664,-4.2662,-4.2321,-4.2609,-4.2607,-4.2605,-4.2604,-4.2603,-4.2343,-4.2407,-4.2426,-4.2487,-4.2506,-4.2537,-4.2595,-4.2589,-4.2644,-4.2698,-4.267,-4.2747,-4.2767,-4.2824,-4.2839,-4.2898,-4.2854,-4.2891,-4.29,-4.291,-4.2923,-4.2654,-4.2906,-4.2905,-4.2904,-4.2904,-4.2903,0,-4.2608,-4.2616,-4.2673,-4.2718,-4.2766,-4.2713,-4.2744,-4.2788,-4.2856,-4.2879,-4.2925,-4.3,-4.3058,-4.3054,-4.3106,-4.3154,-4.3132,-4.3169,-4.3166,-4.3169,-4.2959,-4.2932,-4.3186,-4.3186,-4.3186,-4.3186,-4.3186,-4.3186,-4.2751,-4.2856,-4.2843,-4.2957,-4.2964,-4.3039,-4.3061,-4.3088,-4.3107,-4.3193,-4.3241,-4.3237,-4.325,-4.3302,-4.3352,-4.3349,-4.3372,-4.3419,-4.3407,-4.3212,-4.3184,-4.3157,-4.3132,-4.3423,-4.3424,-4.3612,-4.3614,-4.3615]},{"header":{"parameterUnit":"m.s-1","parameterCategory":1,"la1":30.2991,"la2":30.254,"lo1":-89.0895,"lo2":-89.0444,"dx":0.0017,"dy":0.0017,"nx":28,"ny":28,"refTime":"2022-11-18T15:00:00:Z","depth":0,"parameterNumber":3,"parameterNumberName":"V-component_of_WINDS"},"data":[0,0,0,0,0,0,0,0,0,0,0,0,0,0,0,0,0,0,0,0,0,0,0,0,0,0,0,0,0,0,0,0,0,0,0,0,0,0,0,0,0,0,0,0,0,0,0,0,0,0,0,0,0,0,0,0,0,0,-6.4929,-6.4929,0,-6.4965,-6.4965,-6.4966,-6.4836,-6.4832,-6.4828,-6.4824,-6.486,-6.4864,-6.4869,0,0,0,0,0,0,0,0,0,0,0,0,0,-6.4744,-6.4748,-6.4929,-6.4929,-6.493,-6.4965,-6.4965,-6.4966,-6.4837,-6.4832,-6.4827,-6.4823,-6.4858,-6.4863,-6.4869,0,0,0,0,0,0,0,0,0,0,0,0,0,-6.4807,-6.475,-6.4928,-6.4869,-6.4864,-6.4965,-6.4965,-6.4966,-6.4838,-6.4832,-6.4826,-6.4821,-6.4856,-6.4863,-6.487,-6.5028,0,0,-6.4891,-6.4893,0,0,0,0,0,0,0,0,-6.4804,-6.4814,-6.4878,-6.4874,-6.4868,-6.489,-6.4913,-6.4987,-6.4839,-6.4848,-6.4824,-6.4818,-6.4874,-6.4879,-6.4899,-6.503,-6.5031,-6.4891,-6.4895,-6.4898,-6.49,0,0,0,0,0,0,0,-6.4799,-6.4811,-6.4943,-6.4879,-6.4873,-6.484,-6.4842,-6.4926,-6.4893,-6.4847,-6.4837,-6.4843,-6.4871,-6.4892,-6.4899,-6.5032,-6.4891,-6.4897,-6.4901,-6.4904,-6.5292,-6.5298,0,0,0,0,0,0,-6.4803,-6.4809,-6.4942,-6.4944,-6.4821,-6.4848,-6.4851,-6.4889,-6.4892,-6.4887,-6.4848,-6.4837,-6.4884,-6.4891,-6.4899,-6.5084,-6.4898,-6.4904,-6.4908,-6.5286,-6.5294,-6.53,0,0,0,0,0,0,-6.48,-6.4816,-6.494,-6.4874,-6.4887,-6.4857,-6.4901,-6.4893,-6.4914,-6.4893,-6.4886,-6.4877,-6.4879,-6.489,-6.4997,-6.5083,-6.4908,-6.4914,-6.5279,-6.5288,-6.5297,-6.5455,0,0,0,0,0,0,-6.4795,-6.4816,-6.4877,-6.4876,-6.4891,-6.5038,-6.4906,-6.4897,-6.4927,-6.4912,-6.4918,-6.4914,-6.4876,-6.4987,-6.5004,-6.5089,-6.4919,-6.5271,-6.5283,-6.5294,-6.5442,-6.5468,-6.5491,0,0,0,0,0,-6.4789,-6.4919,-6.488,-6.4897,-6.4967,-6.5044,-6.5052,-6.5006,-6.4934,-6.4994,-6.498,-6.4913,-6.5071,-6.4999,-6.5016,-6.5106,-6.5265,-6.528,-6.5293,-6.5431,-6.5463,-6.5491,0,0,0,0,0,0,-6.493,-6.4918,-6.4875,-6.5009,-6.5029,-6.5022,-6.5096,-6.5042,-6.5082,-6.5067,-6.5008,-6.501,-6.5127,-6.5127,-6.5047,-6.5258,-6.5155,-6.5174,-6.5254,-6.5285,-6.5309,-6.5307,-6.4925,0,0,0,0,0,-6.4977,-6.5042,-6.5027,-6.5147,-6.5159,-6.5127,-6.5158,-6.5121,-6.5139,-6.5146,-6.514,-6.5158,-6.5212,-6.5248,-6.5296,-6.5441,-6.544,-6.5511,-6.5535,-6.5556,-6.5572,-6.5647,-6.5678,-6.5346,-6.5346,-6.5346,0,0,-6.5075,-6.5076,-6.5121,-6.5176,-6.5186,-6.5253,-6.5134,-6.521,-6.5259,-6.5157,-6.5258,-6.5254,-6.5271,-6.5397,-6.5452,-6.54,-6.5664,-6.5574,-6.559,-6.5595,-6.5665,-6.5696,-6.5724,-6.5356,-6.5354,-6.5353,0,0,-6.5287,-6.5295,-6.5395,-6.5408,-6.5425,-6.5402,-6.5427,-6.5428,-6.5422,-6.5522,-6.5446,-6.5503,-6.5597,-6.5611,-6.5631,-6.5847,-6.5787,-6.5865,-6.5994,-6.6068,-6.6094,-6.6117,-6.6193,-6.6221,-6.5881,-6.5881,-6.5882,0,-6.5405,-6.5504,-6.5453,-6.5535,-6.5561,-6.5472,-6.5572,-6.5586,-6.5619,-6.5638,-6.558,-6.5695,-6.57,-6.5828,-6.5881,-6.59,-6.5925,-6.5864,-6.6094,-6.6117,-6.6137,-6.6209,-6.6238,-6.5891,-6.5889,-6.5889,-6.5888,0,-6.5649,-6.5719,-6.5797,-6.5831,-6.5866,-6.5957,-6.5918,-6.5959,-6.5919,-6.5902,-6.6004,-6.6007,-6.6054,-6.6081,-6.6043,-6.6204,-6.6171,-6.6105,-6.6,-6.6179,-6.6246,-6.6273,-6.5904,-6.5901,-6.5898,-6.5895,0,0,-6.5951,-6.5955,-6.5985,-6.5999,-6.6011,-6.6063,-6.6149,-6.6195,-6.6231,-6.6256,-6.6326,-6.6407,-6.6345,-6.6368,-6.633,-6.6395,-6.6565,-6.632,-6.6319,-6.6365,-6.6741,-6.6791,-6.6824,-6.6525,-6.653,-6.6534,-6.6739,0,-6.6159,-6.6307,-6.6263,-6.6411,-6.6473,-6.6389,-6.6464,-6.6479,-6.6465,-6.6515,-6.6499,-6.6558,-6.6472,-6.6485,-6.6546,-6.6531,-6.6639,-6.6516,-6.6588,-6.6591,-6.6586,-6.6858,-6.6911,-6.7105,-6.6765,-6.677,-6.6773,0,-6.6421,-6.6457,-6.6611,-6.6612,-6.6636,-6.6705,-6.6742,-6.6792,-6.6807,-6.6792,-6.6817,-6.6765,-6.6848,-6.6744,-6.6856,-6.6774,-6.68,-6.6798,-6.6804,-6.6808,-6.6693,-6.687,-6.7166,-6.7195,-6.6813,-6.681,-6.6807,0,-6.6625,-6.6712,-6.6815,-6.6829,-6.6833,-6.6883,-6.6886,-6.6895,-6.6925,-6.6958,-6.6977,-6.7019,-6.7042,-6.7075,-6.7036,-6.6963,-6.7154,-6.7047,-6.7143,-6.7145,-6.7187,-6.7185,-6.7491,-6.7206,-6.7205,-6.7205,-6.7204,0,-6.6861,-6.6959,-6.6907,-6.697,-6.7077,-6.7025,-6.7131,-6.7125,-6.7133,-6.7193,-6.7123,-6.718,-6.7125,-6.7177,-6.7147,-6.7244,-6.7255,-6.7245,-6.7236,-6.7251,-6.7253,-6.7268,-6.7253,-6.7212,-6.7211,-6.7209,-6.7208,0,-6.7108,-6.7077,-6.7184,-6.7178,-6.7179,-6.7258,-6.7252,-6.731,-6.7291,-6.7367,-6.7382,-6.7352,-6.741,-6.7374,-6.7432,-6.7411,-6.7539,-6.7511,-6.7534,-6.7527,-6.7625,-6.7616,-6.7952,-6.7993,-6.7681,-6.7684,-6.7687,0,-6.7261,-6.7334,-6.7336,-6.7371,-6.738,-6.7438,-6.7468,-6.7419,-6.7453,-6.7475,-6.753,-6.7582,-6.762,-6.7716,-6.7699,-6.7743,-6.7715,-6.783,-6.7722,-6.7735,-6.7716,-6.7713,-6.7719,-6.7852,-6.7856,-6.7859,-6.7861,0,-6.7535,-6.7515,-6.7562,-6.7604,-6.7642,-6.7672,-6.7696,-6.7729,-6.7679,-6.7721,-6.778,-6.781,-6.7869,-6.7921,-6.7958,-6.796,-6.7903,-6.7895,-6.792,-6.7936,-6.7947,-6.7942,-6.7593,-6.7888,-6.7885,-6.7883,-6.7882,-6.7881,-6.7738,-6.7799,-6.781,-6.7864,-6.7877,-6.7901,-6.7955,-6.7942,-6.799,-6.8035,-6.8003,-6.8072,-6.8083,-6.8126,-6.8136,-6.8189,-6.8142,-6.8178,-6.8187,-6.8196,-6.821,-6.7939,-6.8195,-6.8194,-6.8194,-6.8193,-6.8192,0,-6.8008,-6.801,-6.8061,-6.8097,-6.8139,-6.8081,-6.8105,-6.8144,-6.8206,-6.8221,-6.8261,-6.8327,-6.8377,-6.8364,-6.8408,-6.8453,-6.8427,-6.8466,-6.8462,-6.8463,-6.8249,-6.8223,-6.8486,-6.8486,-6.8485,-6.8485,-6.8485,-6.8485,-6.8153,-6.8252,-6.8235,-6.8339,-6.834,-6.8408,-6.8426,-6.8447,-6.8459,-6.8537,-6.8578,-6.8569,-6.8573,-6.8617,-6.8659,-6.8654,-6.8673,-6.8722,-6.8707,-6.8507,-6.8478,-6.8451,-6.8426,-6.8726,-6.8727,-6.8916,-6.8918,-6.8919]}]]